Torna al catalogo

IRIDIUM 166

AttivoComunicazioniPO
NORAD 43570·PAYLOAD·🇺🇸 United States

Lanciato Jul 25, 2018 da Vandenberg Space Force Base

Loading…

Prossimi Passaggi (prossime 24 ore)

TLE

AggiornatoSource: CelesTrak SupGP

Epoca: Sep 14, 2026, 13:07 UTC

1 43570C 18061B   26257.54687500 -.00003377  00000+0 -12073-2 0  2575
2 43570  86.4012  19.3736 0002153  95.1457 357.4284 14.34218932    14

Traccia IRIDIUM 166 in tempo reale con AllMySat

Download on the App Store